Chillicothe, MO

7:36 PM CDT on October 17, 2017 (GMT -0500)
Chillicothe

Weather History for KCDJ - September, 2012

Change the Weather History Date:

Thursday, September 6, 2012

  Actual Average (KIRK) Record (KIRK)
Temperature  
Mean Temperature 76 °F -  
Max Temperature 89 °F 81 °F 101 °F (1936)
Min Temperature 62 °F 59 °F 40 °F (1962)
Cooling Degree Days 10    
Growing Degree Days 26 (Base 50)    
Moisture  
Dew Point 60 °F    
Average Humidity 61    
Maximum Humidity 84    
Minimum Humidity 36    
Precipitation  
Precipitation 0.00 in - - ()
Sea Level Pressure  
Sea Level Pressure 29.90 in    
Wind  
Wind Speed 3 mph (East)    
Max Wind Speed 9 mph    
Max Gust Speed -    
Averages and records for this station are not official NWS values.
T = Trace of Precipitation, MM = Missing Value Source: NWS Daily Summary

Daily Weather History Graph

Daily Weather History Graph

Search for Another Location

Airport or City:

Trip Planner

Search our weather history database for the weather conditions in past years. The results will help you decide how hot, cold, wet, or windy it might be!

Date:

Astronomy

Sep. 06, 2012 Rise Set
Actual Time 6:47 AM CDT 7:36 PM CDT
Civil Twilight 6:20 AM CDT 8:04 PM CDT
Nautical Twilight 5:47 AM CDT 8:36 PM CDT
Astronomical Twilight 5:13 AM CDT 9:10 PM CDT
Moon 10:48 PM CDT (9/6) 12:46 PM CDT (9/6)
Length of Visible Light 13h 44m
Length of Day
12h 49m
Waning Gibbous, 67% of the Moon is Illuminated
Sep 6
Waning Gibbous
Sep 8
Last Quarter
Sep 15
New
Sep 22
First Quarter
Sep 29
Full

Hourly Weather History & Observations

Time (CDT) Temp. Heat Index Dew Point Humidity Pressure Visibility Wind Dir Wind Speed Gust Speed Precip Events Conditions
12:52 AM 71.1 °F - 61.0 °F 70% 29.89 in - Calm Calm - N/A   Unknown
1:52 AM 66.9 °F - 62.1 °F 84% 29.90 in - Calm Calm - N/A   Unknown
2:52 AM 68.0 °F - 60.1 °F 76% 29.90 in - NNW 4.6 mph - N/A   Unknown
3:52 AM 66.0 °F - 59.0 °F 78% 29.91 in - North 3.5 mph - N/A   Unknown
4:52 AM 64.0 °F - 59.0 °F 84% 29.93 in - Calm Calm - N/A   Unknown
5:52 AM 63.0 °F - 57.9 °F 84% 29.94 in - North 3.5 mph - N/A   Unknown
6:52 AM 62.1 °F - 57.0 °F 84% 29.96 in - Calm Calm - N/A   Unknown
7:52 AM 64.9 °F - 57.9 °F 78% 29.98 in - North 3.5 mph - N/A   Unknown
8:52 AM 68.0 °F - 57.9 °F 70% 29.99 in - North 4.6 mph - N/A   Unknown
9:52 AM 73.9 °F - 60.1 °F 62% 29.98 in - North - - N/A   Unknown
10:52 AM 78.1 °F - 60.1 °F 54% 29.97 in - East 5.8 mph - N/A   Unknown
11:52 AM 81.0 °F 81.1 °F 57.9 °F 45% 29.95 in - East 8.1 mph - N/A   Unknown
12:52 PM 84.0 °F 83.8 °F 59.0 °F 43% 29.94 in - Variable 4.6 mph - N/A   Unknown
1:52 PM 86.0 °F 85.4 °F 59.0 °F 40% 29.92 in - SSE 9.2 mph - N/A   Unknown
2:52 PM 87.1 °F 86.7 °F 60.1 °F 40% 29.89 in - East 6.9 mph - N/A   Unknown
3:52 PM 89.1 °F 88.2 °F 59.0 °F 36% 29.85 in - ENE 5.8 mph - N/A   Unknown
4:52 PM 88.0 °F 87.1 °F 59.0 °F 37% 29.83 in - ESE 5.8 mph - N/A   Unknown
5:52 PM 88.0 °F 87.1 °F 59.0 °F 37% 29.84 in - East 6.9 mph - N/A   Unknown
6:52 PM 84.9 °F 85.0 °F 61.0 °F 44% 29.84 in - Calm Calm - N/A   Unknown
7:52 PM 80.1 °F 81.2 °F 62.1 °F 54% 29.83 in - Calm Calm - N/A   Unknown
8:52 PM 77.0 °F - 61.0 °F 58% 29.83 in - Calm Calm - N/A   Unknown
9:52 PM 78.1 °F - 61.0 °F 56% 29.83 in - SE 4.6 mph - N/A   Unknown
10:52 PM 75.9 °F - 64.9 °F 69% 29.83 in - South 4.6 mph - N/A   Unknown
11:52 PM 75.9 °F - 66.0 °F 71% 29.83 in - SSE 5.8 mph - N/A   Unknown